Location: Unspecified
(43.4354°N, 0.0000°E)
Time: 02:31:44
(UTC+00:00)

Vanguard 2 Rocket - Pass Details

Date: 25 June 2019
Orbit: 554 x 3326 km, 32.9° (Epoch: 13 October)

Event Time Altitude Azimuth Distance (km) Brightness Sun altitude
Rises 03:20:43 0° 272° (W) 5,799 10.6 -9.2°
Reaches altitude 10° 03:25:09 10° 260° (W) 5,187 10.3 -8.6°
Maximum altitude 03:36:53 25° 214° (SW) 4,780 10.0 -7.0°
Drops below altitude 10° 03:51:04 10° 169° (S) 6,277 10.9 -5.1°
Sets 03:57:25 0° 158° (SSE) 7,236 11.3 -4.2°
